Temp
11 11 10 10 10 10 10 10 10 10 10 10 10 10 10 10 11 11 11 10 10 9 9 8 8 8 7 7 7 7 7 6 6 6 6 6 6 6 6 6 6 5
11 11 10 10 10 10 10 10 10 10 10 10 10 10 10 10 10 11 11 10 10 9 9 8 8 7 7 7 7 7 6 6 6 6 6 5 5 5 5 5 5 5
11 11 10 10 10 10 10 10 10 10 10 10 10 10 10 10 10 10 11 10 10 9 9 8 8 7 7 7 7 6 6 6 6 6 5 5 5 5 5 5 5 5
11 11 11 10 10 10 10 10 10 10 10 10 10 10 10 10 10 10 10 10 10 9 9 8 8 7 7 7 7 6 6 6 6 5 5 5 5 5 5 5 5 5
11 11 10 10 10 10 10 10 10 10 10 9 9 10 10 10 10 10 10 10 10 9 9 8 8 7 7 7 6 6 6 6 5 5 5 5 5 5 5 5 5 5
11 11 11 10 10 10 10 10 10 9 9 9 9 9 10 10 10 10 10 10 9 9 8 8 7 7 7 6 6 6 6 6 5 5 5 5 5 5 5 4 4 4
11 10 10 10 10 10 10 10 10 9 9 9 9 9 9 9 10 10 10 9 9 9 8 8 7 7 6 6 6 6 6 6 5 5 5 5 5 5 4 4 4 4
10 10 10 10 10 10 10 10 9 9 9 9 9 9 9 9 9 9 9 9 9 8 8 8 7 7 6 6 6 6 6 6 5 5 5 5 5 5 4 4 4 4
9 10 10 10 10 10 9 9 9 9 9 9 9 9 9 9 9 9 9 8 8 8 7 7 7 7 6 6 6 6 6 6 5 5 5 5 5 5 4 4 4 4
9 9 9 9 9 9 9 9 9 9 9 9 9 9 9 8 9 9 8 8 8 7 7 7 7 6 6 6 6 6 6 6 5 5 5 5 5 5 4 4 4 3
9 9 9 9 9 9 9 8 8 8 8 8 8 8 8 8 8 8 8 8 7 7 7 7 6 6 6 6 6 6 6 5 5 5 5 5 5 5 4 4 4 3
9 9 8 9 9 8 8 8 8 8 8 8 8 8 8 8 8 8 8 7 7 7 7 6 6 6 6 6 6 6 5 5 5 5 5 5 5 5 4 4 4 3
9 9 9 8 8 8 8 8 8 8 8 8 8 8 8 8 8 7 7 7 7 6 6 6 6 6 6 6 6 5 5 5 5 5 5 5 5 4 4 4 4 3
9 9 9 8 8 8 8 8 8 8 7 7 7 8 8 7 7 7 7 7 7 6 6 6 6 5 5 5 5 5 5 5 5 5 5 4 4 4 4 4 3 3
9 9 9 8 7 7 7 7 7 7 7 7 7 7 8 7 7 7 7 7 7 6 6 5 5 5 5 5 5 5 4 5 5 4 4 4 4 4 3 3 3 3
9 8 8 8 7 7 7 7 7 7 7 6 7 7 7 7 7 7 7 6 6 6 5 5 4 4 4 4 4 4 4 4 5 5 4 4 4 3 3 3 3 3
8 7 7 7 7 7 7 7 7 7 7 7 7 7 7 7 7 7 6 6 6 5 5 4 5 5 4 4 4 4 4 4 4 5 4 4 4 3 3 3 3 3
8 7 6 6 6 7 7 7 7 7 7 7 7 7 7 7 7 6 6 6 5 5 5 5 5 5 5 4 4 4 4 4 4 5 4 4 4 4 3 3 3 2
8 8 7 7 6 6 7 7 7 7 7 7 7 7 7 7 7 6 6 5 5 5 5 5 5 5 5 5 5 5 5 4 4 5 5 4 4 4 4 3 3 2
9 8 8 8 8 7 7 7 7 7 7 7 6 7 7 7 6 6 5 5 5 5 5 5 4 4 4 4 4 5 5 5 4 4 4 4 4 4 4 3 2 2
8 9 9 9 9 8 7 6 6 7 7 6 6 6 6 6 6 5 5 5 5 5 5 4 4 4 4 4 4 4 5 5 4 4 4 4 4 4 4 3 3 2
8 8 8 8 8 7 6 6 7 7 7 6 6 6 6 6 5 5 5 5 5 5 5 4 4 4 4 4 4 4 4 4 4 4 4 4 4 3 3 3 3 2
8 8 7 7 7 6 6 7 7 6 6 6 6 6 6 6 6 6 5 5 5 4 4 4 4 4 4 4 4 4 4 4 3 3 3 3 3 3 3 3 2 2
8 8 7 7 6 6 7 7 6 6 6 6 6 6 6 6 6 5 5 5 4 4 4 4 4 4 4 4 4 4 3 3 3 3 3 3 3 3 3 3 2 2
7 7 7 7 7 7 7 7 6 6 6 6 6 6 6 6 5 5 5 5 5 4 4 5 4 4 4 4 4 3 3 3 3 3 3 3 3 3 3 2 2 2
7 7 7 7 7 7 7 7 7 6 6 6 6 6 6 5 5 5 5 5 5 5 4 4 4 4 4 4 4 3 3 3 2 2 2 3 3 3 2 2 2 1
Height
3190 3190 3190 3189 3189 3188 3188 3187 3187 3186 3185 3184 3183 3182 3181 3179 3177 3176 3174 3172 3171 3169 3168 3167 3166 3165 3165 3164 3163 3162 3162 3161 3160 3160 3159 3159 3158 3157 3157 3156 3155 3154
3188 3188 3188 3188 3187 3187 3186 3186 3185 3184 3184 3183 3182 3181 3180 3178 3176 3175 3173 3171 3170 3168 3167 3166 3166 3165 3164 3163 3162 3161 3160 3159 3159 3158 3157 3157 3156 3156 3155 3154 3154 3153
3186 3186 3186 3186 3186 3185 3185 3184 3183 3183 3182 3182 3181 3180 3178 3177 3175 3174 3172 3170 3169 3167 3166 3165 3164 3164 3163 3162 3161 3160 3159 3158 3157 3157 3156 3155 3155 3154 3153 3152 3152 3151
3184 3184 3184 3184 3184 3184 3183 3182 3182 3181 3181 3180 3179 3178 3177 3176 3174 3173 3171 3169 3167 3166 3164 3163 3163 3162 3161 3160 3159 3158 3157 3156 3156 3155 3154 3154 3153 3152 3151 3150 3149 3148
3182 3182 3182 3181 3181 3181 3181 3180 3180 3179 3179 3178 3177 3176 3175 3174 3173 3172 3170 3168 3166 3164 3163 3161 3160 3159 3159 3158 3157 3157 3156 3155 3154 3153 3152 3151 3150 3149 3149 3148 3147 3146
3180 3180 3180 3180 3179 3179 3179 3178 3178 3177 3177 3175 3174 3173 3172 3171 3171 3170 3168 3166 3164 3162 3161 3159 3158 3157 3156 3156 3156 3155 3154 3153 3152 3151 3150 3149 3148 3147 3146 3145 3144 3143
3177 3177 3177 3178 3177 3177 3176 3176 3176 3175 3174 3173 3172 3171 3170 3169 3168 3167 3166 3164 3162 3160 3159 3157 3156 3155 3154 3154 3153 3153 3152 3151 3149 3148 3147 3147 3146 3145 3144 3143 3142 3141
3175 3174 3174 3175 3175 3174 3174 3173 3173 3172 3172 3171 3170 3169 3168 3167 3167 3165 3164 3162 3160 3159 3157 3156 3154 3153 3152 3151 3151 3150 3149 3148 3147 3146 3145 3144 3143 3142 3141 3140 3139 3138
3170 3170 3170 3171 3171 3171 3171 3170 3170 3169 3169 3168 3168 3167 3166 3166 3165 3164 3162 3160 3159 3157 3156 3154 3153 3152 3150 3150 3149 3148 3147 3146 3144 3143 3142 3141 3140 3139 3138 3137 3136 3136
3165 3165 3166 3166 3167 3168 3168 3168 3167 3167 3166 3166 3165 3164 3164 3164 3163 3162 3160 3159 3158 3156 3155 3153 3152 3150 3149 3148 3147 3146 3145 3144 3142 3141 3139 3138 3137 3136 3135 3134 3134 3133
3160 3161 3162 3162 3163 3164 3164 3165 3165 3164 3163 3163 3162 3162 3162 3162 3161 3160 3158 3157 3156 3154 3153 3151 3150 3148 3147 3147 3146 3144 3143 3142 3140 3138 3137 3136 3135 3134 3132 3131 3130 3130
3156 3156 3157 3159 3160 3160 3160 3161 3161 3160 3160 3160 3160 3160 3160 3160 3158 3157 3155 3154 3154 3152 3151 3149 3148 3147 3146 3145 3144 3142 3141 3140 3138 3136 3135 3134 3133 3131 3130 3129 3127 3126
3151 3152 3152 3154 3155 3155 3156 3157 3157 3157 3157 3157 3157 3157 3158 3157 3155 3154 3152 3152 3151 3149 3148 3147 3145 3145 3144 3143 3141 3140 3139 3137 3136 3134 3133 3132 3130 3129 3127 3126 3124 3123
3146 3147 3147 3148 3150 3151 3151 3152 3153 3153 3153 3154 3155 3155 3155 3154 3152 3151 3150 3149 3148 3147 3145 3144 3143 3142 3141 3140 3139 3138 3136 3135 3133 3132 3130 3129 3128 3126 3125 3123 3121 3120
3140 3141 3142 3143 3145 3147 3148 3149 3150 3150 3150 3151 3153 3154 3153 3152 3150 3148 3148 3147 3145 3144 3142 3141 3140 3139 3138 3137 3137 3136 3134 3133 3131 3129 3127 3126 3124 3123 3122 3120 3118 3117
3133 3134 3137 3140 3142 3144 3146 3147 3147 3147 3148 3149 3150 3151 3150 3149 3147 3146 3145 3144 3143 3142 3140 3138 3137 3136 3135 3135 3134 3133 3132 3130 3128 3127 3125 3123 3121 3120 3118 3117 3115 3114
3130 3134 3137 3138 3140 3142 3144 3144 3144 3146 3147 3147 3147 3148 3148 3146 3145 3143 3142 3141 3141 3139 3138 3136 3134 3133 3132 3132 3131 3130 3129 3127 3126 3124 3122 3120 3118 3116 3115 3114 3112 3111
3133 3136 3138 3137 3138 3139 3139 3140 3143 3145 3145 3145 3145 3146 3145 3143 3142 3141 3140 3139 3138 3137 3136 3134 3133 3131 3130 3129 3128 3127 3125 3124 3123 3121 3119 3117 3115 3113 3111 3110 3109 3107
3131 3132 3134 3133 3134 3134 3134 3137 3141 3142 3142 3143 3143 3143 3142 3141 3139 3138 3138 3137 3136 3135 3134 3133 3131 3130 3128 3127 3126 3125 3122 3120 3119 3118 3116 3114 3112 3110 3108 3106 3105 3103
3124 3124 3125 3127 3128 3129 3131 3135 3138 3137 3138 3140 3141 3140 3139 3138 3137 3136 3136 3135 3134 3133 3132 3131 3129 3128 3126 3125 3124 3122 3119 3117 3115 3114 3112 3111 3109 3107 3105 3103 3101 3099
3117 3117 3118 3121 3123 3126 3130 3133 3134 3134 3135 3137 3137 3137 3136 3135 3134 3134 3133 3133 3133 3132 3130 3129 3127 3125 3123 3122 3121 3118 3116 3114 3112 3110 3109 3108 3106 3104 3101 3099 3097 3095
3112 3113 3116 3119 3122 3125 3127 3129 3131 3132 3133 3133 3134 3134 3133 3133 3132 3132 3131 3131 3131 3129 3127 3126 3124 3122 3120 3118 3117 3115 3113 3110 3108 3107 3105 3104 3102 3100 3098 3095 3093 3092
3109 3111 3114 3118 3120 3123 3125 3127 3128 3129 3130 3131 3132 3131 3131 3130 3130 3129 3129 3129 3128 3126 3124 3123 3121 3119 3117 3114 3113 3111 3109 3107 3105 3103 3101 3100 3098 3096 3094 3091 3090 3088
3105 3108 3111 3114 3116 3120 3123 3125 3126 3127 3128 3129 3130 3129 3128 3128 3127 3127 3127 3126 3124 3122 3120 3118 3117 3115 3113 3111 3109 3108 3105 3103 3101 3099 3097 3095 3093 3092 3090 3088 3086 3084
3103 3106 3108 3111 3114 3118 3121 3123 3124 3124 3126 3127 3127 3127 3126 3125 3124 3124 3123 3122 3120 3118 3116 3114 3113 3111 3109 3107 3106 3104 3102 3099 3097 3095 3093 3091 3089 3088 3086 3085 3083 3081
3103 3106 3107 3110 3113 3116 3119 3121 3121 3122 3123 3124 3125 3124 3122 3121 3121 3120 3119 3118 3116 3114 3113 3111 3109 3108 3106 3104 3102 3100 3098 3096 3093 3091 3089 3087 3085 3084 3082 3081 3079 3077
Wind_Speed
9 8 9 9 10 11 12 15 17 18 20 22 24 26 27 28 29 29 25 21 18 16 15 14 13 13 13 13 14 14 14 14 14 14 15 16 17 17 17 16 16 17
12 12 11 12 12 12 13 15 17 18 20 21 23 26 28 28 29 29 26 22 19 17 15 14 13 12 12 12 13 13 14 14 14 15 16 17 18 18 17 17 17 18
15 15 14 15 15 15 15 16 17 18 19 20 22 26 28 28 29 29 27 23 20 18 16 14 13 12 12 11 12 13 13 13 14 15 16 17 18 18 18 18 18 18
19 18 18 18 17 18 18 19 19 19 19 20 22 25 27 28 29 29 27 23 20 18 16 15 14 12 12 12 13 13 14 13 14 14 15 16 17 17 18 18 18 19
22 22 22 21 21 21 21 21 21 21 20 21 22 24 26 29 29 29 27 23 20 18 16 15 14 13 12 12 12 13 14 14 14 15 15 15 17 17 18 19 19 20
26 26 26 25 24 24 24 24 24 23 21 21 21 23 25 28 29 29 27 23 20 18 16 15 14 13 13 12 12 13 13 14 14 15 15 16 17 17 18 19 20 21
29 29 29 28 28 28 27 27 26 24 22 21 21 23 24 26 28 28 25 22 19 17 16 15 15 14 14 14 14 14 15 15 15 16 16 17 17 17 18 19 21 21
30 31 31 31 30 30 30 29 27 25 23 21 21 22 23 25 26 25 23 20 17 16 15 15 15 15 15 15 16 17 17 16 16 16 17 17 18 18 19 20 21 21
32 32 32 32 32 31 31 30 28 25 23 21 21 22 23 25 24 21 19 17 15 14 13 13 13 14 15 16 16 17 18 17 18 18 18 19 19 20 20 21 21 20
33 34 33 33 32 32 31 29 27 25 23 21 21 22 24 24 22 18 16 14 13 13 12 12 13 14 15 16 18 19 19 19 19 19 20 20 21 21 21 21 21 20
32 35 35 34 33 32 31 29 26 24 22 20 20 23 25 23 19 16 14 14 13 13 13 13 14 15 16 17 19 19 19 19 19 20 21 22 22 23 22 22 21 21
31 34 36 36 35 33 31 28 26 24 22 22 23 25 24 19 16 15 14 14 14 14 14 14 15 16 17 18 19 19 19 19 20 21 22 23 24 24 23 23 23 23
29 32 36 38 37 35 31 28 26 24 22 22 22 20 17 16 15 15 14 14 15 14 14 15 16 17 18 19 20 21 21 22 22 23 23 24 24 24 23 23 24 24
30 31 36 40 38 35 31 28 28 25 23 21 19 16 15 15 15 14 14 14 15 15 16 16 17 18 19 20 21 22 23 24 24 24 24 24 24 23 23 23 25 26
34 32 35 40 38 34 32 31 30 28 26 24 19 15 16 15 14 14 13 14 15 16 18 19 20 21 22 22 22 22 23 24 25 24 24 24 23 23 23 24 25 26
37 33 32 39 38 35 34 31 29 28 27 23 17 15 15 14 13 14 14 15 16 17 18 20 22 22 22 22 23 23 24 25 26 25 25 24 23 23 23 24 25 26
35 31 28 34 37 35 33 32 31 28 22 15 12 14 15 14 14 14 14 15 16 17 18 20 21 21 21 21 23 26 27 28 27 26 26 26 25 25 25 26 26 27
31 28 26 33 36 34 35 36 31 22 14 10 11 13 14 15 15 15 15 16 17 17 19 21 22 22 23 24 26 28 30 29 27 25 26 26 27 28 28 29 30 30
30 28 27 32 36 38 39 34 25 15 9 10 11 12 15 16 16 16 16 18 19 20 22 24 24 24 24 26 28 30 31 30 26 24 25 26 28 29 30 31 32 32
30 28 27 30 35 39 34 25 19 14 9 9 10 12 15 17 16 17 18 19 21 23 25 26 26 27 27 28 29 30 31 30 28 25 25 27 28 30 31 32 32 33
29 28 28 28 29 28 21 15 15 12 7 8 10 12 15 16 17 19 20 21 23 26 28 28 28 30 31 31 31 31 31 30 28 27 27 28 29 30 31 32 31 31
27 29 29 24 19 18 15 13 11 7 6 8 10 13 15 17 19 20 22 23 25 27 30 31 31 32 33 33 33 33 31 29 28 28 29 29 30 30 31 32 31 30
25 26 22 15 13 15 15 10 6 6 8 10 12 15 17 18 19 21 23 24 26 29 31 33 34 34 35 34 34 33 30 27 27 28 29 30 30 30 31 31 31 31
18 15 11 11 13 15 13 9 8 9 10 13 16 17 18 19 20 23 24 25 27 29 30 33 34 34 35 35 34 32 29 27 27 29 30 30 31 31 31 32 31 32
8 7 9 14 16 15 14 12 11 11 13 16 18 19 21 22 23 26 26 27 29 30 31 32 31 31 33 35 34 32 29 28 29 30 31 32 33 33 33 32 32 33
8 11 14 17 16 15 15 14 13 14 16 18 19 20 22 23 26 28 29 29 31 31 31 31 30 30 32 33 33 31 29 29 31 32 32 34 34 34 34 32 32 32
Wind_Direction
247 258 273 290 304 313 322 327 331 335 338 340 343 345 346 347 349 348 344 342 341 338 334 329 325 321 318 315 313 312 310 309 308 308 308 307 307 307 305 304 303 304
249 255 266 279 289 297 306 313 319 325 330 334 338 342 344 344 345 345 342 340 339 338 335 329 324 319 316 313 310 310 310 310 310 309 309 307 307 306 305 304 304 305
252 256 262 271 279 286 293 300 307 315 321 325 331 338 341 341 341 341 340 337 336 336 333 328 324 318 314 311 308 308 309 309 308 308 308 306 304 303 302 302 304 305
254 257 260 266 273 278 283 290 297 304 310 315 323 332 338 337 336 338 337 334 333 333 331 328 324 319 315 312 310 309 309 308 307 306 306 303 301 300 300 301 302 302
254 256 259 264 269 273 278 283 289 295 302 310 317 325 332 334 333 334 334 332 330 330 330 328 325 321 317 313 311 309 307 306 304 302 302 300 299 298 298 298 299 299
253 256 259 263 268 272 275 279 284 290 297 307 313 319 328 331 330 330 331 330 328 328 329 328 326 323 317 313 312 308 305 303 301 300 302 301 300 299 297 295 295 295
253 256 259 263 267 270 273 276 281 286 293 302 309 317 327 330 327 328 329 327 325 327 328 328 326 323 318 316 314 311 308 307 305 304 305 304 301 298 294 292 292 293
250 254 257 262 265 268 271 274 277 281 288 297 306 316 326 329 326 324 325 324 323 326 327 327 326 322 319 317 314 312 312 312 311 309 306 303 299 295 291 290 291 294
246 251 255 259 263 266 267 270 273 277 283 291 300 310 318 322 320 319 320 321 320 323 326 327 326 323 321 321 319 318 317 315 313 310 306 301 297 293 291 290 292 296
242 246 252 256 259 261 263 266 269 273 278 287 296 306 313 314 312 310 313 314 314 319 325 327 327 328 327 327 326 323 320 315 310 308 304 300 297 294 292 292 293 295
246 244 248 252 254 256 258 262 264 268 275 284 294 305 311 309 302 303 308 310 312 317 323 326 326 326 325 325 324 321 319 316 309 306 303 299 296 295 295 296 295 294
251 244 244 248 251 252 254 256 258 263 271 281 293 301 303 298 294 302 308 308 313 315 318 322 321 319 318 316 317 317 317 317 313 309 306 300 297 297 297 298 297 294
253 245 243 244 247 248 249 250 252 259 268 282 297 300 291 288 293 303 309 308 311 312 315 320 318 316 316 314 315 316 317 319 317 314 310 303 298 298 299 300 299 298
253 248 240 238 241 243 242 245 250 255 262 278 299 298 282 287 297 303 308 308 309 313 318 321 319 317 318 318 318 317 316 317 315 313 310 304 299 297 297 299 300 300
253 252 241 233 235 238 240 246 250 253 261 274 288 289 281 288 297 302 308 309 312 320 327 329 328 324 321 319 319 318 314 312 310 309 307 302 298 296 295 297 299 300
250 249 240 231 232 237 241 246 248 256 270 278 280 281 280 285 296 303 308 311 317 329 335 334 332 328 322 317 315 314 311 307 305 305 305 302 298 295 294 295 297 299
252 248 236 229 232 237 238 239 247 261 277 282 274 276 278 286 298 303 306 312 321 329 331 328 328 326 321 313 307 306 306 304 302 303 304 303 300 297 296 295 295 296
265 260 241 227 228 233 236 240 251 265 275 272 268 275 283 293 300 301 305 312 318 321 318 316 319 322 319 313 309 307 306 303 300 302 306 306 304 302 300 298 296 293
278 270 248 231 228 232 238 247 256 258 254 261 268 279 290 297 301 302 306 310 314 317 314 310 310 310 311 310 309 308 307 302 298 303 308 308 306 304 301 299 297 294
271 263 253 245 241 240 244 251 249 237 233 252 267 283 294 299 302 304 307 310 312 313 311 309 305 301 300 302 302 304 306 303 299 302 307 307 305 303 300 298 297 296
258 255 255 255 253 253 251 234 223 226 230 244 266 286 295 298 301 304 308 309 308 307 306 306 303 297 295 296 296 300 305 302 297 298 303 305 304 302 299 297 296 295
257 255 256 256 256 254 238 208 204 227 238 247 273 289 292 295 299 302 306 306 304 302 302 302 301 296 293 293 293 297 302 299 295 297 303 305 304 302 299 296 294 293
261 258 253 245 235 229 219 202 205 235 246 261 278 284 286 291 296 299 303 303 301 300 298 298 296 292 290 291 292 296 300 296 293 297 303 304 303 301 298 296 294 293
258 258 240 214 207 207 206 210 226 239 253 268 275 281 286 290 296 299 299 295 294 294 293 292 290 287 286 289 292 296 297 294 293 298 302 302 301 300 299 298 296 295
221 208 195 194 193 195 203 217 230 240 253 263 274 284 287 288 291 292 289 289 291 291 289 288 287 287 287 289 293 296 296 293 295 299 300 300 301 302 300 299 297 298
174 179 183 185 188 197 211 223 235 242 250 261 273 281 281 282 284 284 286 290 291 289 289 288 288 290 290 291 293 295 294 294 296 298 299 300 302 303 301 299 299 299